Wetterdaten: Dienstag, 21.10.2014
Datum Zeit Temperatur Luftfeuchte Luftdruck Regen Wind Richtung Richtung Taupunkt Windchill Windben
21.10.2014 00:00 12,9 C 93 % 1019,9 hPa 0,0 l/m 0,0 km/h (0 Bft) S-SO 157 11,8 C 22,8 C 0,0 km/h (0 Bft)
21.10.2014 00:10 13,0 C 92 % 1019,6 hPa 0,0 l/m 0,0 km/h (0 Bft) S-SO 157 11,7 C 22,8 C 0,0 km/h (0 Bft)
21.10.2014 00:20 13,0 C 92 % 1019,6 hPa 0,0 l/m 0,0 km/h (0 Bft) S-SO 157 11,7 C 22,8 C 0,0 km/h (0 Bft)
21.10.2014 00:30 12,9 C 94 % 1019,4 hPa 0,0 l/m 0,0 km/h (0 Bft) S-SO 157 12,0 C 22,8 C 0,0 km/h (0 Bft)
21.10.2014 00:40 12,7 C 94 % 1019,4 hPa 0,0 l/m 0,0 km/h (0 Bft) S-SO 157 11,8 C 22,8 C 0,0 km/h (0 Bft)
21.10.2014 00:50 12,5 C 94 % 1019,3 hPa 0,0 l/m 0,0 km/h (0 Bft) S-SO 157 11,6 C 22,8 C 0,0 km/h (0 Bft)
21.10.2014 01:00 12,4 C 94 % 1019,3 hPa 0,0 l/m 0,0 km/h (0 Bft) S-SO 157 11,5 C 22,8 C 0,0 km/h (0 Bft)
21.10.2014 01:10 12,4 C 94 % 1019,4 hPa 0,0 l/m 0,0 km/h (0 Bft) S-SO 157 11,5 C 22,8 C 0,0 km/h (0 Bft)
21.10.2014 01:20 12,3 C 94 % 1019,4 hPa 0,0 l/m 0,0 km/h (0 Bft) S-SO 157 11,4 C 22,8 C 0,0 km/h (0 Bft)
21.10.2014 01:30 12,2 C 94 % 1019,2 hPa 0,0 l/m 0,0 km/h (0 Bft) S-SO 157 11,3 C 22,8 C 0,0 km/h (0 Bft)
21.10.2014 01:40 12,1 C 94 % 1019,2 hPa 0,0 l/m 0,0 km/h (0 Bft) S-SO 157 11,2 C 22,8 C 0,0 km/h (0 Bft)
21.10.2014 01:48 12,0 C 94 % 1019,2 hPa 0,0 l/m 0,0 km/h (0 Bft) S-SO 157 11,1 C 22,8 C 0,0 km/h (0 Bft)
21.10.2014 01:50 12,0 C 94 % 1019,2 hPa 0,0 l/m 0,0 km/h (0 Bft) S-SO 157 11,1 C 22,8 C 0,0 km/h (0 Bft)
21.10.2014 02:00 11,9 C 94 % 1019,2 hPa 0,0 l/m 0,0 km/h (0 Bft) S-SO 157 11,0 C 22,8 C 0,0 km/h (0 Bft)
21.10.2014 02:10 11,9 C 94 % 1019,1 hPa 0,0 l/m 0,0 km/h (0 Bft) S-SO 157 11,0 C 22,8 C 0,0 km/h (0 Bft)
21.10.2014 02:20 11,8 C 94 % 1019,1 hPa 0,0 l/m 0,0 km/h (0 Bft) S-SO 157 10,9 C 22,8 C 0,0 km/h (0 Bft)
21.10.2014 02:30 11,7 C 94 % 1019,1 hPa 0,0 l/m 0,0 km/h (0 Bft) S-SO 157 10,8 C 22,8 C 0,0 km/h (0 Bft)
21.10.2014 02:40 11,7 C 94 % 1019,1 hPa 0,0 l/m 0,0 km/h (0 Bft) S-SO 157 10,8 C 22,8 C 0,0 km/h (0 Bft)
21.10.2014 02:50 11,7 C 95 % 1019,2 hPa 0,0 l/m 0,0 km/h (0 Bft) S-SO 157 10,9 C 22,8 C 0,0 km/h (0 Bft)
21.10.2014 03:00 11,6 C 95 % 1019,2 hPa 0,0 l/m 0,0 km/h (0 Bft) S-SO 157 10,8 C 22,8 C 0,0 km/h (0 Bft)
21.10.2014 03:10 11,5 C 95 % 1018,9 hPa 0,0 l/m 0,0 km/h (0 Bft) S-SO 157 10,7 C 22,8 C 0,0 km/h (0 Bft)
21.10.2014 03:20 11,4 C 95 % 1018,9 hPa 0,0 l/m 0,0 km/h (0 Bft) S-SO 157 10,6 C 22,8 C 0,0 km/h (0 Bft)
21.10.2014 03:30 11,3 C 95 % 1018,7 hPa 0,0 l/m 0,0 km/h (0 Bft) S-SO 157 10,5 C 22,8 C 0,0 km/h (0 Bft)
21.10.2014 03:40 11,3 C 95 % 1018,7 hPa 0,0 l/m 0,0 km/h (0 Bft) S-SO 157 10,5 C 22,8 C 0,0 km/h (0 Bft)
21.10.2014 03:50 11,3 C 95 % 1018,4 hPa 0,0 l/m 0,0 km/h (0 Bft) S-SO 157 10,5 C 22,8 C 0,0 km/h (0 Bft)
21.10.2014 04:00 11,3 C 95 % 1018,4 hPa 0,0 l/m 0,0 km/h (0 Bft) S-SO 157 10,5 C 22,8 C 0,0 km/h (0 Bft)
21.10.2014 04:10 11,3 C 95 % 1018,2 hPa 0,0 l/m 0,0 km/h (0 Bft) S-SO 157 10,5 C 22,8 C 0,0 km/h (0 Bft)
21.10.2014 04:20 11,3 C 95 % 1018,2 hPa 0,0 l/m 0,0 km/h (0 Bft) S-SO 157 10,5 C 22,8 C 0,0 km/h (0 Bft)
21.10.2014 04:30 11,3 C 95 % 1018,1 hPa 0,0 l/m 0,0 km/h (0 Bft) S-SO 157 10,5 C 22,8 C 0,0 km/h (0 Bft)
21.10.2014 04:40 11,3 C 95 % 1018,1 hPa 0,0 l/m 0,0 km/h (0 Bft) S-SO 157 10,5 C 22,8 C 0,0 km/h (0 Bft)
21.10.2014 04:48 11,2 C 95 % 1017,9 hPa 0,0 l/m 0,0 km/h (0 Bft) S-SO 157 10,4 C 22,8 C 0,0 km/h (0 Bft)
21.10.2014 04:50 11,2 C 95 % 1017,9 hPa 0,0 l/m 0,0 km/h (0 Bft) S-SO 157 10,4 C 22,8 C 0,0 km/h (0 Bft)
21.10.2014 05:00 11,2 C 95 % 1017,9 hPa 0,0 l/m 0,0 km/h (0 Bft) S-SO 157 10,4 C 22,8 C 0,0 km/h (0 Bft)
21.10.2014 05:10 11,4 C 95 % 1017,8 hPa 0,0 l/m 0,0 km/h (0 Bft) S-SO 157 10,6 C 22,8 C 0,0 km/h (0 Bft)
21.10.2014 05:20 11,4 C 95 % 1017,8 hPa 0,0 l/m 0,0 km/h (0 Bft) S-SO 157 10,6 C 22,8 C 0,0 km/h (0 Bft)
21.10.2014 05:30 11,5 C 95 % 1017,9 hPa 0,0 l/m 0,0 km/h (0 Bft) S-SO 157 10,7 C 22,8 C 0,0 km/h (0 Bft)
21.10.2014 05:40 11,5 C 95 % 1017,9 hPa 0,0 l/m 0,0 km/h (0 Bft) S-SO 157 10,7 C 22,8 C 0,0 km/h (0 Bft)
21.10.2014 05:50 11,5 C 95 % 1017,8 hPa 0,0 l/m 0,0 km/h (0 Bft) S-SO 157 10,7 C 22,8 C 0,0 km/h (0 Bft)
21.10.2014 06:00 11,5 C 95 % 1017,8 hPa 0,0 l/m 0,0 km/h (0 Bft) S-SO 157 10,7 C 22,8 C 0,0 km/h (0 Bft)
21.10.2014 06:10 11,4 C 95 % 1017,7 hPa 0,0 l/m 0,0 km/h (0 Bft) S-SO 157 10,6 C 22,8 C 0,0 km/h (0 Bft)
21.10.2014 06:20 11,3 C 95 % 1017,7 hPa 0,0 l/m 0,0 km/h (0 Bft) S-SO 157 10,5 C 22,8 C 0,0 km/h (0 Bft)
21.10.2014 06:30 11,4 C 95 % 1017,8 hPa 0,0 l/m 0,0 km/h (0 Bft) S-SO 157 10,6 C 22,8 C 0,0 km/h (0 Bft)
21.10.2014 06:40 11,4 C 95 % 1017,8 hPa 0,0 l/m 0,0 km/h (0 Bft) S-SO 157 10,6 C 22,8 C 0,0 km/h (0 Bft)
21.10.2014 06:50 11,4 C 95 % 1017,5 hPa 0,0 l/m 0,0 km/h (0 Bft) S-SO 157 10,6 C 22,8 C 0,0 km/h (0 Bft)
21.10.2014 07:00 11,4 C 95 % 1017,5 hPa 0,0 l/m 0,0 km/h (0 Bft) S-SO 157 10,6 C 22,8 C 0,0 km/h (0 Bft)
21.10.2014 07:10 11,3 C 95 % 1017,4 hPa 0,0 l/m 0,0 km/h (0 Bft) S-SO 157 10,5 C 22,8 C 0,0 km/h (0 Bft)
21.10.2014 07:20 11,3 C 95 % 1017,4 hPa 0,0 l/m 0,0 km/h (0 Bft) S-SO 157 10,5 C 22,8 C 0,0 km/h (0 Bft)
21.10.2014 07:30 11,2 C 95 % 1017,2 hPa 0,0 l/m 0,0 km/h (0 Bft) S-SO 157 10,4 C 22,8 C 0,0 km/h (0 Bft)
21.10.2014 07:40 11,2 C 95 % 1017,2 hPa 0,0 l/m 0,0 km/h (0 Bft) S-SO 157 10,4 C 22,8 C 0,0 km/h (0 Bft)
21.10.2014 07:48 11,1 C 95 % 1017,0 hPa 0,0 l/m 0,0 km/h (0 Bft) S-SO 157 10,3 C 22,8 C 0,0 km/h (0 Bft)
21.10.2014 07:50 11,1 C 95 % 1017,0 hPa 0,0 l/m 0,0 km/h (0 Bft) S-SO 157 10,3 C 22,8 C 0,0 km/h (0 Bft)
21.10.2014 08:00 10,6 C 95 % 1017,0 hPa 0,0 l/m 0,0 km/h (0 Bft) S-SO 157 9,8 C 22,8 C 0,0 km/h (0 Bft)
21.10.2014 08:10 10,8 C 95 % 1017,0 hPa 0,0 l/m 0,0 km/h (0 Bft) S-SO 157 10,0 C 22,8 C 0,0 km/h (0 Bft)
21.10.2014 08:20 11,0 C 95 % 1017,0 hPa 0,0 l/m 0,0 km/h (0 Bft) S-SO 157 10,2 C 22,8 C 0,0 km/h (0 Bft)
21.10.2014 08:30 10,8 C 95 % 1016,6 hPa 0,0 l/m 0,0 km/h (0 Bft) S-SO 157 10,0 C 22,8 C 0,0 km/h (0 Bft)
21.10.2014 08:40 11,0 C 95 % 1016,6 hPa 0,0 l/m 0,0 km/h (0 Bft) S-SO 157 10,2 C 22,8 C 0,0 km/h (0 Bft)
21.10.2014 08:50 11,2 C 95 % 1017,1 hPa 0,0 l/m 0,0 km/h (0 Bft) S-SO 157 10,4 C 22,8 C 0,0 km/h (0 Bft)
21.10.2014 09:00 11,4 C 95 % 1017,1 hPa 0,0 l/m 0,0 km/h (0 Bft) S-SO 157 10,6 C 22,8 C 0,0 km/h (0 Bft)
21.10.2014 09:10 11,9 C 95 % 1017,1 hPa 0,0 l/m 0,0 km/h (0 Bft) S-SO 157 11,1 C 22,8 C 0,0 km/h (0 Bft)
21.10.2014 09:20 12,0 C 95 % 1017,1 hPa 0,0 l/m 0,0 km/h (0 Bft) S-SO 157 11,2 C 22,8 C 0,0 km/h (0 Bft)
21.10.2014 09:30 11,9 C 95 % 1016,9 hPa 0,0 l/m 0,0 km/h (0 Bft) S-SO 157 11,1 C 22,8 C 0,0 km/h (0 Bft)
21.10.2014 09:40 11,9 C 95 % 1016,9 hPa 0,0 l/m 0,0 km/h (0 Bft) S-SO 157 11,1 C 22,8 C 0,0 km/h (0 Bft)
21.10.2014 09:50 12,0 C 95 % 1017,2 hPa 0,0 l/m 0,0 km/h (0 Bft) S-SO 157 11,2 C 22,8 C 0,0 km/h (0 Bft)
21.10.2014 10:00 12,2 C 95 % 1017,2 hPa 0,0 l/m 0,0 km/h (0 Bft) S-SO 157 11,4 C 22,8 C 0,0 km/h (0 Bft)
21.10.2014 10:10 12,8 C 95 % 1017,1 hPa 0,0 l/m 0,0 km/h (0 Bft) S-SO 157 12,0 C 22,8 C 0,0 km/h (0 Bft)
21.10.2014 10:20 13,1 C 94 % 1017,1 hPa 0,0 l/m 0,0 km/h (0 Bft) S-SO 157 12,2 C 22,8 C 0,0 km/h (0 Bft)
21.10.2014 10:30 12,9 C 95 % 1017,0 hPa 0,0 l/m 0,0 km/h (0 Bft) S-SO 157 12,1 C 22,8 C 0,0 km/h (0 Bft)
21.10.2014 10:40 12,9 C 95 % 1017,0 hPa 0,0 l/m 0,0 km/h (0 Bft) S-SO 157 12,1 C 22,8 C 0,0 km/h (0 Bft)
21.10.2014 10:48 12,7 C 95 % 1017,1 hPa 0,0 l/m 0,0 km/h (0 Bft) S-SO 157 11,9 C 22,8 C 0,0 km/h (0 Bft)
21.10.2014 10:50 12,7 C 95 % 1017,1 hPa 0,0 l/m 0,0 km/h (0 Bft) S-SO 157 11,9 C 22,8 C 0,0 km/h (0 Bft)
21.10.2014 11:00 13,0 C 94 % 1017,1 hPa 0,0 l/m 0,0 km/h (0 Bft) S-SO 157 12,1 C 22,8 C 0,0 km/h (0 Bft)
21.10.2014 11:10 13,1 C 94 % 1017,1 hPa 0,0 l/m 0,0 km/h (0 Bft) S-SO 157 12,2 C 22,8 C 0,0 km/h (0 Bft)
21.10.2014 11:20 12,8 C 94 % 1017,1 hPa 0,0 l/m 0,0 km/h (0 Bft) S-SO 157 11,9 C 22,8 C 0,0 km/h (0 Bft)
21.10.2014 11:30 13,1 C 93 % 1017,0 hPa 0,0 l/m 0,0 km/h (0 Bft) S-SO 157 12,0 C 22,8 C 0,0 km/h (0 Bft)
21.10.2014 11:40 13,6 C 92 % 1017,0 hPa 0,0 l/m 0,0 km/h (0 Bft) S-SO 157 12,3 C 22,8 C 0,0 km/h (0 Bft)
21.10.2014 11:50 13,8 C 92 % 1016,9 hPa 0,0 l/m 0,0 km/h (0 Bft) S-SO 157 12,5 C 22,8 C 0,0 km/h (0 Bft)
21.10.2014 12:00 13,7 C 92 % 1016,9 hPa 0,0 l/m 0,0 km/h (0 Bft) S-SO 157 12,4 C 22,8 C 0,0 km/h (0 Bft)
21.10.2014 12:10 13,6 C 92 % 1016,9 hPa 0,0 l/m 0,0 km/h (0 Bft) S-SO 157 12,3 C 22,8 C 0,0 km/h (0 Bft)
21.10.2014 12:20 13,5 C 91 % 1016,9 hPa 0,0 l/m 0,0 km/h (0 Bft) S-SO 157 12,1 C 22,8 C 0,0 km/h (0 Bft)
21.10.2014 12:30 13,5 C 91 % 1016,7 hPa 0,0 l/m 0,0 km/h (0 Bft) S-SO 157 12,1 C 22,8 C 0,0 km/h (0 Bft)
21.10.2014 12:40 13,4 C 91 % 1016,7 hPa 0,0 l/m 0,0 km/h (0 Bft) S-SO 157 12,0 C 22,8 C 0,0 km/h (0 Bft)
21.10.2014 12:50 13,6 C 90 % 1016,6 hPa 0,0 l/m 0,0 km/h (0 Bft) S-SO 157 12,0 C 22,8 C 0,0 km/h (0 Bft)
21.10.2014 13:00 13,6 C 90 % 1016,6 hPa 0,0 l/m 0,0 km/h (0 Bft) S-SO 157 12,0 C 22,8 C 0,0 km/h (0 Bft)
21.10.2014 13:10 13,8 C 89 % 1016,1 hPa 0,0 l/m 0,0 km/h (0 Bft) S-SO 157 12,0 C 22,8 C 0,0 km/h (0 Bft)
21.10.2014 13:20 14,0 C 89 % 1016,1 hPa 0,0 l/m 0,0 km/h (0 Bft) S-SO 157 12,2 C 22,8 C 0,0 km/h (0 Bft)
21.10.2014 13:30 14,4 C 89 % 1015,7 hPa 0,0 l/m 0,0 km/h (0 Bft) S-SO 157 12,6 C 22,8 C 0,0 km/h (0 Bft)
21.10.2014 13:40 14,3 C 89 % 1015,7 hPa 0,0 l/m 0,0 km/h (0 Bft) S-SO 157 12,5 C 22,8 C 0,0 km/h (0 Bft)
21.10.2014 13:48 14,8 C 89 % 1015,1 hPa 0,0 l/m 0,0 km/h (0 Bft) S-SO 157 13,0 C 22,8 C 0,0 km/h (0 Bft)
21.10.2014 13:50 14,8 C 89 % 1015,1 hPa 0,0 l/m 0,0 km/h (0 Bft) S-SO 157 13,0 C 22,8 C 0,0 km/h (0 Bft)
21.10.2014 14:00 15,9 C 87 % 1015,1 hPa 0,0 l/m 0,0 km/h (0 Bft) S-SO 157 13,7 C 22,8 C 0,0 km/h (0 Bft)
21.10.2014 14:10 15,0 C 84 % 1015,2 hPa 0,0 l/m 0,0 km/h (0 Bft) S-SO 157 12,3 C 22,8 C 0,0 km/h (0 Bft)
21.10.2014 14:20 14,8 C 85 % 1015,2 hPa 0,0 l/m 0,0 km/h (0 Bft) S-SO 157 12,3 C 22,8 C 0,0 km/h (0 Bft)
21.10.2014 14:30 14,7 C 87 % 1014,8 hPa 0,0 l/m 0,0 km/h (0 Bft) S-SO 157 12,6 C 22,8 C 0,0 km/h (0 Bft)
21.10.2014 14:40 14,3 C 85 % 1014,8 hPa 0,0 l/m 0,0 km/h (0 Bft) S-SO 157 11,8 C 22,8 C 0,0 km/h (0 Bft)
21.10.2014 14:50 13,9 C 86 % 1014,7 hPa 0,0 l/m 0,0 km/h (0 Bft) S-SO 157 11,6 C 22,8 C 0,0 km/h (0 Bft)
21.10.2014 15:00 14,1 C 87 % 1014,7 hPa 0,0 l/m 0,0 km/h (0 Bft) S-SO 157 12,0 C 22,8 C 0,0 km/h (0 Bft)
21.10.2014 15:10 14,6 C 86 % 1014,1 hPa 0,0 l/m 0,0 km/h (0 Bft) S-SO 157 12,3 C 22,8 C 0,0 km/h (0 Bft)
21.10.2014 15:20 14,0 C 85 % 1014,1 hPa 0,0 l/m 0,0 km/h (0 Bft) S-SO 157 11,5 C 22,8 C 0,0 km/h (0 Bft)
21.10.2014 15:30 14,2 C 86 % 1013,9 hPa 0,0 l/m 0,0 km/h (0 Bft) S-SO 157 11,9 C 22,8 C 0,0 km/h (0 Bft)
21.10.2014 15:40 14,0 C 87 % 1013,9 hPa 0,0 l/m 0,0 km/h (0 Bft) S-SO 157 11,9 C 22,8 C 0,0 km/h (0 Bft)
21.10.2014 15:50 13,6 C 88 % 1014,2 hPa 0,0 l/m 0,0 km/h (0 Bft) S-SO 157 11,6 C 22,8 C 0,0 km/h (0 Bft)
21.10.2014 16:00 13,1 C 88 % 1014,2 hPa 0,0 l/m 0,0 km/h (0 Bft) S-SO 157 11,2 C 22,8 C 0,0 km/h (0 Bft)
21.10.2014 16:10 13,2 C 89 % 1013,9 hPa 0,0 l/m 0,0 km/h (0 Bft) S-SO 157 11,4 C 22,8 C 0,0 km/h (0 Bft)
21.10.2014 16:20 13,4 C 89 % 1013,9 hPa 0,0 l/m 0,0 km/h (0 Bft) S-SO 157 11,6 C 22,8 C 0,0 km/h (0 Bft)
21.10.2014 16:30 13,6 C 89 % 1012,8 hPa 0,0 l/m 0,0 km/h (0 Bft) S-SO 157 11,8 C 22,8 C 0,0 km/h (0 Bft)
21.10.2014 16:40 13,2 C 88 % 1012,8 hPa 0,0 l/m 0,0 km/h (0 Bft) S-SO 157 11,3 C 22,8 C 0,0 km/h (0 Bft)
21.10.2014 16:50 13,1 C 89 % 1012,5 hPa 0,0 l/m 0,0 km/h (0 Bft) S-SO 157 11,3 C 22,8 C 0,0 km/h (0 Bft)
21.10.2014 17:00 13,1 C 89 % 1012,5 hPa 0,0 l/m 0,0 km/h (0 Bft) S-SO 157 11,3 C 22,8 C 0,0 km/h (0 Bft)
21.10.2014 17:10 12,7 C 91 % 1012,2 hPa 0,0 l/m 0,0 km/h (0 Bft) S-SO 157 11,3 C 22,8 C 0,0 km/h (0 Bft)
21.10.2014 17:20 12,7 C 91 % 1012,2 hPa 0,0 l/m 0,0 km/h (0 Bft) S-SO 157 11,3 C 22,8 C 0,0 km/h (0 Bft)
21.10.2014 17:30 12,6 C 91 % 1012,1 hPa 0,0 l/m 0,0 km/h (0 Bft) S-SO 157 11,2 C 22,8 C 0,0 km/h (0 Bft)
21.10.2014 17:40 12,4 C 92 % 1012,1 hPa 0,0 l/m 0,0 km/h (0 Bft) S-SO 157 11,1 C 22,8 C 0,0 km/h (0 Bft)
21.10.2014 17:50 12,4 C 92 % 1011,9 hPa 0,0 l/m 0,0 km/h (0 Bft) S-SO 157 11,1 C 22,8 C 0,0 km/h (0 Bft)
21.10.2014 18:00 12,4 C 92 % 1011,9 hPa 0,0 l/m 0,0 km/h (0 Bft) S-SO 157 11,1 C 22,8 C 0,0 km/h (0 Bft)
21.10.2014 18:10 12,2 C 92 % 1011,4 hPa 0,0 l/m 0,0 km/h (0 Bft) S-SO 157 10,9 C 22,8 C 0,0 km/h (0 Bft)
21.10.2014 18:20 12,1 C 92 % 1011,4 hPa 0,0 l/m 0,0 km/h (0 Bft) S-SO 157 10,8 C 22,8 C 0,0 km/h (0 Bft)
21.10.2014 18:30 12,3 C 90 % 1011,4 hPa 0,0 l/m 0,0 km/h (0 Bft) S-SO 157 10,7 C 22,8 C 0,0 km/h (0 Bft)
21.10.2014 18:40 12,1 C 89 % 1011,4 hPa 0,0 l/m 0,0 km/h (0 Bft) S-SO 157 10,3 C 22,8 C 0,0 km/h (0 Bft)
21.10.2014 18:50 11,8 C 90 % 1011,0 hPa 0,0 l/m 0,0 km/h (0 Bft) S-SO 157 10,2 C 22,8 C 0,0 km/h (0 Bft)
21.10.2014 19:00 11,7 C 91 % 1011,0 hPa 0,0 l/m 0,0 km/h (0 Bft) S-SO 157 10,3 C 22,8 C 0,0 km/h (0 Bft)
21.10.2014 19:10 12,0 C 90 % 1010,8 hPa 0,0 l/m 0,0 km/h (0 Bft) S-SO 157 10,4 C 22,8 C 0,0 km/h (0 Bft)
21.10.2014 19:20 11,6 C 90 % 1010,8 hPa 0,0 l/m 0,0 km/h (0 Bft) S-SO 157 10,0 C 22,8 C 0,0 km/h (0 Bft)
21.10.2014 19:30 11,7 C 89 % 1010,1 hPa 0,0 l/m 0,0 km/h (0 Bft) S-SO 157 9,9 C 22,8 C 0,0 km/h (0 Bft)
21.10.2014 19:38 11,5 C 89 % 1010,1 hPa 0,0 l/m 0,0 km/h (0 Bft) S-SO 157 9,8 C 22,8 C 0,0 km/h (0 Bft)
21.10.2014 19:40 11,5 C 89 % 1010,1 hPa 0,0 l/m 0,0 km/h (0 Bft) S-SO 157 9,8 C 22,8 C 0,0 km/h (0 Bft)
21.10.2014 19:50 11,4 C 88 % 1008,8 hPa 0,0 l/m 0,0 km/h (0 Bft) S-SO 157 9,5 C 22,8 C 0,0 km/h (0 Bft)
21.10.2014 20:00 12,1 C 85 % 1008,8 hPa 0,0 l/m 0,0 km/h (0 Bft) S-SO 157 9,7 C 22,8 C 0,0 km/h (0 Bft)
21.10.2014 20:10 10,8 C 88 % 1008,6 hPa 0,0 l/m 0,0 km/h (0 Bft) S-SO 157 8,9 C 22,8 C 0,0 km/h (0 Bft)
21.10.2014 20:20 10,5 C 90 % 1008,6 hPa 0,0 l/m 0,0 km/h (0 Bft) S-SO 157 8,9 C 22,8 C 0,0 km/h (0 Bft)
21.10.2014 20:30 10,5 C 91 % 1007,9 hPa 0,0 l/m 0,0 km/h (0 Bft) S-SO 157 9,1 C 22,8 C 0,0 km/h (0 Bft)
21.10.2014 20:40 11,1 C 91 % 1007,9 hPa 0,0 l/m 0,0 km/h (0 Bft) S-SO 157 9,7 C 22,8 C 0,0 km/h (0 Bft)
21.10.2014 20:50 10,8 C 91 % 1007,3 hPa 0,0 l/m 0,0 km/h (0 Bft) S-SO 157 9,4 C 22,8 C 0,0 km/h (0 Bft)
21.10.2014 21:00 10,9 C 91 % 1007,3 hPa 0,0 l/m 0,0 km/h (0 Bft) S-SO 157 9,5 C 22,8 C 0,0 km/h (0 Bft)
21.10.2014 21:10 11,1 C 89 % 1007,1 hPa 0,0 l/m 0,0 km/h (0 Bft) S-SO 157 9,4 C 22,8 C 0,0 km/h (0 Bft)
21.10.2014 21:20 11,4 C 87 % 1007,1 hPa 0,0 l/m 0,0 km/h (0 Bft) S-SO 157 9,3 C 22,8 C 0,0 km/h (0 Bft)
21.10.2014 21:30 10,1 C 86 % 1008,4 hPa 0,0 l/m 0,0 km/h (0 Bft) S-SO 157 7,9 C 22,8 C 0,0 km/h (0 Bft)
21.10.2014 21:40 9,3 C 89 % 1008,4 hPa 0,0 l/m 0,0 km/h (0 Bft) S-SO 157 7,6 C 22,8 C 0,0 km/h (0 Bft)
21.10.2014 21:50 5,3 C 87 % 1011,4 hPa 0,0 l/m 0,0 km/h (0 Bft) S-SO 157 3,3 C 22,8 C 0,0 km/h (0 Bft)
21.10.2014 22:00 4,8 C 89 % 1011,4 hPa 0,0 l/m 0,0 km/h (0 Bft) S-SO 157 3,1 C 22,8 C 0,0 km/h (0 Bft)
21.10.2014 22:10 4,0 C 89 % 1013,9 hPa 0,0 l/m 0,0 km/h (0 Bft) S-SO 157 2,4 C 22,8 C 0,0 km/h (0 Bft)
21.10.2014 22:20 3,6 C 91 % 1013,9 hPa 0,0 l/m 0,0 km/h (0 Bft) S-SO 157 2,3 C 22,8 C 0,0 km/h (0 Bft)
21.10.2014 22:30 3,6 C 92 % 1014,9 hPa 0,0 l/m 0,0 km/h (0 Bft) S-SO 157 2,4 C 22,8 C 0,0 km/h (0 Bft)
21.10.2014 22:40 3,8 C 93 % 1014,9 hPa 0,0 l/m 0,0 km/h (0 Bft) S-SO 157 2,8 C 22,8 C 0,0 km/h (0 Bft)
21.10.2014 22:50 3,8 C 93 % 1015,6 hPa 0,0 l/m 0,0 km/h (0 Bft) S-SO 157 2,8 C 22,8 C 0,0 km/h (0 Bft)
21.10.2014 23:00 3,7 C 93 % 1015,6 hPa 0,0 l/m 0,0 km/h (0 Bft) S-SO 157 2,7 C 22,8 C 0,0 km/h (0 Bft)
21.10.2014 23:10 3,6 C 94 % 1015,4 hPa 0,0 l/m 0,0 km/h (0 Bft) S-SO 157 2,7 C 22,8 C 0,0 km/h (0 Bft)
21.10.2014 23:20 3,6 C 94 % 1015,4 hPa 0,0 l/m 0,0 km/h (0 Bft) S-SO 157 2,7 C 22,8 C 0,0 km/h (0 Bft)
21.10.2014 23:30 3,8 C 93 % 1014,9 hPa 0,0 l/m 0,0 km/h (0 Bft) S-SO 157 2,8 C 22,8 C 0,0 km/h (0 Bft)
21.10.2014 23:38 4,0 C 92 % 1014,9 hPa 0,0 l/m 0,0 km/h (0 Bft) S-SO 157 2,8 C 22,8 C 0,0 km/h (0 Bft)
21.10.2014 23:40 4,0 C 92 % 1014,9 hPa 0,0 l/m 0,0 km/h (0 Bft) S-SO 157 2,8 C 22,8 C 0,0 km/h (0 Bft)
21.10.2014 23:50 4,0 C 91 % 1015,4 hPa 0,0 l/m 0,0 km/h (0 Bft) S-SO 157 2,7 C 22,8 C 0,0 km/h (0 Bft)
_ Min-Zeit 23:20 14:10 21:20 - 23:50 - - 22:20 23:50 23:50
Minimum _ 3,6 C 84 % 1007,1 hPa - 0,0 km/h (0 Bft) - - 2,3 C 22,8 C 0,0 km/h (0 Bft)
_ Max-Zeit 14:00 10:50 00:00 23:50 23:50 - - 14:00 23:50 23:50
Maximum _ 15,9 C 95 % 1019,9 hPa 0,0 l/m 0,0 km/h
S-SO (0 Bft)
- - 13,7 C 22,8 C 0,0 km/h
S-SO (0 Bft)
Durchschnitt _ 11,5 C 92 % 1015,4 hPa #0,0 l/m 0,0 km/h (0 Bft) - - - 10,3 C 22,8 C 0,0 km/h (0 Bft)